| time (UTC) | temp C | wind direction | speed KPH | gust KPH | rain 1hr cm | rain 24hr cm | rain mn cm | humidity % | barometer mb |
| 20260503211528 | 16 | 218 | 6.4 | 11.3 | 0.00 | 0.00 | 0.00 | 71 | 1014.4 |
| 20260503210026 | 16 | 229 | 6.4 | 11.3 | 0.00 | 0.00 | 0.00 | 77 | 1014.4 |
| 20260503204526 | 16 | 215 | 8.0 | 12.9 | 0.00 | 0.00 | 0.00 | 78 | 1014.5 |
| 20260503203023 | 15 | 180 | 6.4 | 12.9 | 0.00 | 0.00 | 0.00 | 80 | 1014.5 |
| 20260503201529 | 15 | 171 | 9.7 | 12.9 | 0.00 | 0.00 | 0.00 | 80 | 1014.7 |
| 20260503200027 | 15 | 173 | 8.0 | 12.9 | 0.00 | 0.00 | 0.00 | 79 | 1014.7 |
| 20260503194526 | 15 | 180 | 3.2 | 12.9 | 0.00 | 0.00 | 0.00 | 78 | 1014.7 |
| 20260503193017 | 15 | 189 | 4.8 | 9.7 | 0.00 | 0.00 | 0.00 | 79 | 1015.0 |
| 20260503191517 | 15 | 207 | 6.4 | 11.3 | 0.00 | 0.00 | 0.00 | 78 | 1015.0 |
| 20260503190019 | 15 | 200 | 4.8 | 11.3 | 0.00 | 0.00 | 0.00 | 77 | 1014.8 |
| 20260503184520 | 15 | 217 | 6.4 | 12.9 | 0.00 | 0.00 | 0.00 | 77 | 1014.7 |
| 20260503183017 | 15 | 225 | 4.8 | 9.7 | 0.00 | 0.00 | 0.00 | 76 | 1014.6 |
| 20260503181514 | 14 | 209 | 6.4 | 11.3 | 0.00 | 0.00 | 0.00 | 79 | 1014.8 |
| 20260503180002 | 14 | 176 | 4.8 | 11.3 | 0.00 | 0.00 | 0.00 | 82 | 1015.0 |
| 20260503174600 | 13 | 176 | 4.8 | 11.3 | 0.00 | 0.00 | 0.00 | 83 | 1014.9 |
| 20260503173100 | 13 | 213 | 4.8 | 9.7 | 0.00 | 0.00 | 0.00 | 85 | 1014.9 |
| 20260503171555 | 13 | 215 | 3.2 | 6.4 | 0.00 | 0.00 | 0.00 | 84 | 1014.8 |
| 20260503081516 | 12 | 333 | 0.0 | 4.8 | 0.00 | 0.00 | 0.00 | 86 | 1013.0 |
| 20260503071506 | 12 | 333 | 0.0 | 4.8 | 0.00 | 0.00 | 0.00 | 87 | 1012.8 |
| 20260503060116 | 12 | 331 | 0.0 | 8.0 | 0.00 | 0.00 | 0.00 | 88 | 1012.6 |
| 20260503054600 | 12 | 350 | 4.8 | 9.7 | 0.00 | 0.00 | 0.00 | 88 | 1012.4 |
| 20260503053100 | 12 | 290 | 1.6 | 8.0 | 0.00 | 0.00 | 0.00 | 88 | 1012.4 |
| 20260503051600 | 12 | 288 | 1.6 | 8.0 | 0.00 | 0.00 | 0.00 | 89 | 1012.3 |
| 20260503050059 | 12 | 322 | 3.2 | 9.7 | 0.00 | 0.00 | 0.00 | 89 | 1012.4 |
| 20260503044626 | 12 | 348 | 3.2 | 8.0 | 0.00 | 0.00 | 0.00 | 89 | 1012.4 |
| 20260503043059 | 12 | 319 | 1.6 | 8.0 | 0.00 | 0.00 | 0.00 | 89 | 1012.6 |
| 20260503041558 | 12 | 345 | 1.6 | 14.5 | 0.00 | 0.00 | 0.00 | 88 | 1012.4 |
| 20260503040106 | 12 | 351 | 3.2 | 9.7 | 0.00 | 0.00 | 0.00 | 88 | 1012.3 |
| 20260503034600 | 12 | 355 | 3.2 | 9.7 | 0.00 | 0.00 | 0.00 | 88 | 1012.2 |
| 20260503033056 | 12 | 317 | 1.6 | 12.9 | 0.00 | 0.00 | 0.00 | 88 | 1012.3 |
| 20260503031555 | 12 | 319 | 1.6 | 6.4 | 0.00 | 0.00 | 0.00 | 87 | 1012.2 |
| 20260503030105 | 12 | 322 | 3.2 | 8.0 | 0.00 | 0.00 | 0.00 | 86 | 1011.7 |
| 20260503024559 | 13 | 317 | 1.6 | 8.0 | 0.00 | 0.00 | 0.00 | 85 | 1011.7 |
| 20260503023059 | 13 | 322 | 3.2 | 8.0 | 0.00 | 0.00 | 0.00 | 83 | 1011.7 |
| 20260503021555 | 13 | 294 | 1.6 | 12.9 | 0.00 | 0.00 | 0.00 | 82 | 1011.8 |
| 20260503020059 | 14 | 270 | 4.8 | 16.1 | 0.00 | 0.00 | 0.00 | 80 | 1011.6 |
| 20260503014555 | 15 | 314 | 4.8 | 16.1 | 0.00 | 0.00 | 0.00 | 81 | 1011.8 |
| 20260503013057 | 15 | 281 | 3.2 | 14.5 | 0.00 | 0.00 | 0.00 | 80 | 1011.9 |
| 20260503011553 | 15 | 266 | 4.8 | 14.5 | 0.00 | 0.00 | 0.00 | 79 | 1011.9 |
| 20260503010048 | 15 | 284 | 4.8 | 16.1 | 0.00 | 0.00 | 0.00 | 78 | 1012.0 |
| 20260503004550 | 15 | 250 | 8.0 | 14.5 | 0.00 | 0.00 | 0.00 | 79 | 1012.1 |
| 20260503003050 | 15 | 271 | 11.3 | 17.7 | 0.00 | 0.00 | 0.00 | 77 | 1012.1 |
| 20260503001550 | 16 | 253 | 6.4 | 16.1 | 0.00 | 0.00 | 0.00 | 75 | 1012.2 |
| 20260503000048 | 16 | 263 | 9.7 | 17.7 | 0.00 | 0.00 | 0.00 | 77 | 1012.2 |
| 20260502234552 | 15 | 286 | 9.7 | 19.3 | 0.00 | 0.00 | 0.00 | 76 | 1012.4 |
| 20260502233038 | 15 | 259 | 11.3 | 17.7 | 0.00 | 0.00 | 0.00 | 77 | 1012.4 |
| 20260502231536 | 15 | 248 | 9.7 | 16.1 | 0.00 | 0.00 | 0.00 | 75 | 1012.5 |
| 20260502230033 | 15 | 269 | 9.7 | 17.7 | 0.00 | 0.00 | 0.00 | 74 | 1012.7 |
| 20260502224532 | 15 | 248 | 9.7 | 14.5 | 0.00 | 0.00 | 0.00 | 75 | 1012.9 |
| 20260502223038 | 15 | 278 | 6.4 | 16.1 | 0.00 | 0.00 | 0.00 | 76 | 1013.3 |
| 20260502221527 | 15 | 254 | 6.4 | 11.3 | 0.00 | 0.00 | 0.00 | 75 | 1013.5 |
| 20260502220027 | 15 | 244 | 6.4 | 12.9 | 0.00 | 0.00 | 0.00 | 76 | 1013.6 |
| 20260502214525 | 16 | 238 | 6.4 | 14.5 | 0.00 | 0.00 | 0.00 | 74 | 1013.7 |
| 20260502213023 | 15 | 248 | 4.8 | 14.5 | 0.00 | 0.00 | 0.00 | 77 | 1013.9 |